Regional Weather Roundup
Issued by NWS

Home | Current Version | Previous Version | Text Only | Print | Product List | Glossary On
Versions: 1 2 3 4 5 6 7 8 9 10 11 12 13 14 15 16 17 18 19 20 21 22 23 24 25 26 27 28 29 30 31 32 33 34 35 36 37 38 39 40 41 42 43 44 45 46 47 48 49 50
199
ASUS44 KJAN 200210
RWRMS

MISSISSIPPI HOURLY WEATHER ROUNDUP
NATIONAL WEATHER SERVICE JACKSON MS
900 PM CDT TUE AUG 19 2014

NOTE: "FAIR: INDICATES FEW OR NO CLOUDS BELOW 12,000 FEET WITH NO
SIGNIFICANT WEATHER AND/OR OBSTRUCTIONS TO VISIBILITY.

MSZ001>002-007>008-010>013-018>021-025>028-034>036-200300-
NORTHWEST MISSISSIPPI

CITY           SKY/WX    TMP DP  RH WIND       PRES   REMARKS
CLARKSDALE     FAIR      84  81  89 CALM      29.91R HX  98
CLEVELAND      FAIR      80  74  84 SW3       29.91R
GREENWOOD      MOCLDY    81  76  84 SW5       29.92R
GREENVILLE       N/A    N/A N/A N/A MISG      29.90R
GRENADA        FAIR      82  73  74 SW5       29.92R
OLIVE BRANCH   CLEAR     81  81 100 S6        29.90R HX  91
OXFORD         FAIR      81  75  83 SW3       29.93R
TUNICA         CLEAR     79  75  89 S5        29.90R
$$

MSZ003>006-009-014>017-022>024-029>033-037>039-200300-
NORTHEAST MISSISSIPPI

CITY           SKY/WX    TMP DP  RH WIND       PRES   REMARKS
BELMONT        FAIR      81  74  78 S5        29.92R
COLUMBUS AFB   PTCLDY    80  72  76 S6        29.92R
CORINTH        FAIR      79  73  83 SW3       29.90S
GOLDN TRIANGLE PTCLDY    82  70  65 SW5       29.93R
STARKVILLE     MOCLDY    79  73  83 CALM      29.92R
TUPELO         CLEAR     83  73  72 SW5       29.91R
$$

MSZ040-058-200300-
CENTRAL MISSISSIPPI

CITY           SKY/WX    TMP DP  RH WIND       PRES   REMARKS
JACKSON INTL   PTCLDY    81  74  79 CALM      29.94R
JACKSON HAWKNS PTCLDY    83  74  74 CALM      29.94S
MERIDIAN KEY   CLOUDY    74  69  85 CALM      29.95S
MERIDIAN NAS   CLOUDY    75  69  81 CALM      29.95R
RAYMOND        FAIR      79  73  83 CALM      29.93S HAZE
VICKSBURG      MOCLDY    80  76  87 S3        29.92R
$$

MSZ059>079-200300-
SOUTH MISSISSIPPI

CITY           SKY/WX    TMP DP  RH WIND       PRES   REMARKS
BROOKHAVEN     FAIR      79  75  89 CALM      29.97S
COLUMBIA       FOG       81  75  83 MISG      29.95R VSB 1/4
HATTIESBURG    MOCLDY    86  74  67 CALM      29.97R HX  94
MCCOMB         MOCLDY    80  73  79 SW3       29.97R
NATCHEZ        CLOUDY    77  70  78 S5        29.97R
PINE BELT      PTCLDY    81  66  61 E6        29.98S
$$

MSZ080>082-200300-
COASTAL MISSISSIPPI

CITY           SKY/WX    TMP DP  RH WIND       PRES   REMARKS
BAY ST LOUIS   CLEAR    N/A N/A N/A CALM      29.97R
BILOXI         CLEAR     84  71  64 W2        29.97R
PASCAGOULA     CLEAR     83  76  79 S3        29.97R HX  91
GULFPORT       PTCLDY    82  72  71 W3        29.96R
$$



USA.gov is the U.S. government's official web portal to all federal, state and local government web resources and services.